Terug naar catalogus

HULIANWANG DIGUI-136

ActiefCommunicatieLEO
NORAD 67244·PAYLOAD·🇨🇳 China

Gelanceerd Dec 25, 2025 vanaf Wenchang Space Launch Site

Loading…

Volgende Passages (komende 24 uur)

TLE

VersSource: Space-Track

Epoch: Sep 14, 2026, 17:48 UTC

1 67244U 25311J   26257.74231085 -.00000078  00000-0  98845-4 0  9991
2 67244  50.0086 154.5493 0000259 327.6822  32.4034 13.29327813 35251

Volg HULIANWANG DIGUI-136 in realtime met AllMySat

Download on the App Store